ROMMA est une association bénévole à but non lucratif. Votre soutien est indispensable : ADHERER à ROMMA ou FAIRE un DON

Val-d'Arly - (73, Savoie)

Beaufortain (2050 m)   Longitude: 06° 35' 21" E   Latitude: 45° 46' 53" N Station romma n°118
 

Détail journalier du     <<     >>

Température Precipitation Humidité Vent Dir Rafale Dir. rafale Ensol.
Heure (°C) (mm) (%) (km/h) (km/h) (min)
01:00 11.306510SSE15SSE0
02:00 11.10745SSO10SSO0
03:00 10.40783SSO6SSO0
04:00 10.60738SSO15SSO0
05:00 10.70745SE13SSO0
06:00 10.50752S5SSE0
07:00 10.70692S5S20
08:00 11.90692SSO5SSO60
09:00 13.10732S5S60
10:00 11.70784ENE11E60
11:00 12.10776NE13ENE30
12:00 12.60737NE16NE20
13:00 13.70728NE18NE30
14:00 14.30704NNE13NE0
15:00 14.20645NE19N0
16:00 14.506412NNE24NE50
17:00 14.906011NE21NNE50
18:00 14.706015NE29N60
19:00 14.306317NE27NNE60
20:00 13.206917NE29NE60
21:00 12.006817N26N10
22:00 11.506916N23N0
23:00 11.206910NO16NO0
minuit 11.106511O16ONO0

Graphique du 17-07-2019

 

Serveur OMMA